sat.trackr.live / text

‹ back to catalog

STARLINK-11257 [DTC]

NORAD 61201 · 2024-171B

PAYLOAD ACTIVE UNKNOWN

§ Identity

Operator
Country
US
Launch date
2024-09-20
Launch site
AFWTR
Launch vehicle
Mass (kg)
RCS (m²)

Purposes: comms

External: N2YO · Heavens-Above · Gunter

§ Orbital elements

Epoch: 2026-09-21T09:19:15.237984Z

Period
91.74 min
Inclination
53.1590°
Eccentricity
0.0001126
Mean motion
15.69705501 rev/d
Perigee alt
359.0 km
Apogee alt
360.5 km
Semi-major
6,737.9 km
B*
-6.5564e-7
RAAN
291.6707°
Arg perigee
85.7664°
Mean anomaly
274.3483°
Rev number
11,513

§ Raw data

STARLINK-11257 [DTC]1 61201U 24171B   26264.38837081 -.00000668  00000+0 -65564-6 0  99962 61201  53.1590 291.6707 0001126  85.7664 274.3483 15.69705501115134

JSON: /api/v1/satellites/61201 · /tle

For live sub-satellite position, see the globe view (requires WebGL).

§ Visibility from observer

Set your observer location to see the next 7 days of passes ≥ 10°. The values pass through the URL so the page stays shareable.

No JS? Fill the form by hand. The geolocation button needs JavaScript.